Powrót do katalogu

BSAT-3A

AktywnyŁącznośćGEO
NORAD 32019·PAYLOAD·🇯🇵 Japan

Wystrzelony Aug 14, 2007 z Guiana Space Centre

Loading…

TLE

ŚwieżeSource: Space-Track

Epoka: Sep 14, 2026, 13:27 UTC

1 32019U 07036B   26257.56061737  .00000070  00000-0  00000-0 0  9995
2 32019   1.8872  86.4921 0005611 110.6229 222.9393  0.99139712 51352

Śledź BSAT-3A w czasie rzeczywistym z AllMySat

Download on the App Store